Temp
-8 -8 -8 -8 -8 -8 -8 -8 -8 -8 -8 -8 -8 -8 -8 -8 -8 -8 -8 -8 -8 -8 -8 -8 -8 -8 -8 -9 -9 -9 -9 -9 -9 -9 -9 -10 -10 -10 -10 -10 -10 -9 -10 -10 -10
-8 -8 -8 -8 -8 -8 -8 -8 -8 -8 -8 -8 -8 -8 -8 -8 -8 -8 -8 -8 -8 -8 -8 -8 -8 -8 -9 -9 -9 -9 -9 -9 -9 -9 -9 -9 -10 -10 -10 -10 -10 -10 -10 -10 -10
-9 -8 -8 -8 -8 -8 -8 -8 -8 -7 -7 -8 -8 -8 -8 -8 -8 -9 -8 -8 -8 -8 -8 -8 -8 -8 -8 -9 -9 -9 -9 -9 -9 -10 -10 -10 -10 -10 -10 -9 -10 -10 -10 -10 -10
-9 -9 -9 -9 -9 -8 -8 -8 -8 -8 -8 -8 -8 -8 -8 -8 -9 -9 -9 -9 -9 -9 -9 -9 -9 -9 -9 -9 -9 -9 -9 -9 -9 -9 -9 -10 -10 -10 -10 -9 -10 -10 -10 -10 -10
-9 -9 -9 -9 -9 -9 -9 -9 -9 -9 -8 -8 -9 -8 -9 -9 -9 -9 -9 -9 -9 -9 -9 -9 -9 -9 -9 -9 -9 -9 -9 -9 -9 -9 -9 -9 -9 -10 -10 -10 -10 -10 -10 -10 -10
-9 -9 -9 -9 -9 -9 -9 -9 -9 -9 -9 -9 -9 -9 -9 -9 -9 -9 -9 -9 -9 -9 -9 -9 -9 -9 -9 -9 -9 -9 -9 -9 -9 -9 -9 -9 -9 -10 -9 -10 -10 -10 -10 -10 -10
-9 -9 -9 -9 -9 -9 -9 -9 -9 -9 -9 -9 -9 -9 -9 -9 -9 -9 -9 -9 -9 -9 -9 -10 -10 -10 -9 -9 -9 -9 -9 -9 -9 -9 -9 -9 -9 -10 -10 -9 -10 -10 -10 -10 -10
-10 -10 -10 -10 -9 -9 -9 -9 -9 -9 -9 -9 -9 -9 -9 -9 -10 -10 -10 -10 -10 -10 -10 -10 -10 -10 -10 -10 -10 -10 -9 -9 -9 -9 -10 -10 -9 -9 -10 -10 -9 -10 -10 -10 -10
-10 -10 -10 -10 -10 -10 -10 -10 -10 -10 -10 -10 -10 -10 -9 -10 -10 -10 -10 -10 -10 -10 -10 -10 -10 -10 -10 -10 -10 -10 -10 -10 -10 -9 -10 -10 -9 -9 -9 -10 -10 -10 -10 -10 -10
-10 -10 -10 -10 -10 -10 -10 -10 -10 -10 -10 -10 -10 -10 -10 -10 -10 -10 -10 -10 -10 -10 -10 -11 -11 -11 -10 -11 -11 -11 -11 -10 -10 -10 -10 -10 -10 -10 -10 -10 -10 -10 -10 -10 -10
-11 -11 -10 -10 -11 -11 -11 -10 -11 -10 -10 -10 -10 -10 -10 -10 -10 -10 -10 -10 -10 -10 -10 -11 -11 -10 -11 -11 -11 -11 -11 -11 -10 -11 -10 -10 -10 -10 -10 -10 -10 -10 -10 -10 -10
-11 -11 -11 -11 -11 -11 -11 -11 -11 -11 -10 -11 -10 -10 -10 -11 -10 -10 -11 -10 -10 -10 -11 -10 -10 -11 -11 -11 -12 -11 -11 -11 -11 -11 -11 -10 -10 -10 -10 -10 -10 -10 -10 -11 -10
-11 -11 -11 -11 -11 -11 -11 -11 -11 -11 -10 -10 -11 -10 -11 -11 -10 -10 -11 -10 -10 -10 -11 -10 -11 -11 -11 -11 -11 -12 -11 -11 -11 -11 -10 -10 -9 -10 -10 -10 -10 -10 -10 -11 -11
-11 -11 -11 -11 -11 -11 -12 -12 -12 -12 -11 -10 -10 -10 -11 -11 -11 -11 -11 -11 -11 -10 -11 -10 -11 -11 -11 -11 -12 -11 -11 -11 -12 -11 -11 -11 -8 -9 -9 -10 -9 -10 -10 -11 -10
-11 -12 -12 -12 -12 -12 -12 -12 -12 -12 -11 -10 -10 -10 -10 -11 -11 -11 -11 -11 -11 -11 -11 -11 -11 -11 -11 -11 -12 -11 -12 -12 -12 -11 -11 -11 -10 -9 -10 -9 -9 -10 -11 -11 -11
-12 -12 -13 -13 -13 -13 -13 -12 -12 -12 -10 -10 -11 -12 -11 -11 -11 -11 -12 -12 -12 -12 -11 -12 -11 -12 -12 -12 -12 -12 -12 -12 -12 -12 -10 -10 -11 -9 -10 -9 -10 -10 -11 -11 -11
-12 -13 -13 -14 -14 -14 -14 -14 -14 -10 -9 -9 -11 -11 -12 -12 -12 -12 -12 -12 -12 -12 -12 -12 -12 -12 -12 -12 -12 -12 -13 -12 -11 -11 -9 -11 -10 -9 -10 -11 -10 -11 -11 -11 -11
-13 -13 -13 -14 -15 -15 -15 -15 -13 -10 -11 -11 -12 -12 -12 -12 -13 -13 -13 -12 -13 -13 -13 -13 -12 -12 -13 -13 -13 -12 -13 -13 -12 -11 -9 -11 -9 -9 -10 -10 -11 -11 -11 -12 -12
-14 -14 -13 -13 -15 -15 -15 -15 -10 -12 -13 -13 -13 -12 -12 -12 -13 -14 -13 -13 -13 -13 -14 -14 -13 -13 -13 -12 -13 -12 -13 -13 -13 -12 -11 -10 -9 -9 -10 -11 -13 -12 -11 -12 -12
-16 -15 -14 -14 -15 -15 -15 -13 -12 -12 -14 -14 -14 -14 -13 -13 -14 -14 -14 -13 -13 -14 -15 -14 -15 -14 -14 -14 -13 -14 -13 -13 -13 -13 -12 -9 -10 -11 -12 -12 -12 -12 -12 -12 -13
-17 -17 -15 -15 -16 -15 -14 -13 -13 -14 -14 -14 -14 -15 -15 -15 -15 -15 -14 -14 -14 -14 -15 -15 -15 -14 -14 -13 -13 -14 -13 -14 -14 -13 -13 -11 -9 -11 -11 -11 -13 -13 -13 -13 -13
-17 -17 -16 -16 -16 -15 -16 -15 -15 -14 -15 -15 -15 -16 -16 -15 -15 -16 -15 -15 -15 -15 -15 -15 -15 -14 -13 -14 -13 -14 -14 -14 -14 -13 -13 -14 -7 -10 -11 -12 -12 -13 -13 -14 -13
-17 -17 -17 -17 -17 -15 -15 -16 -16 -15 -15 -16 -15 -15 -16 -16 -15 -15 -15 -15 -16 -15 -15 -15 -15 -15 -14 -14 -13 -14 -14 -15 -15 -15 -13 -15 -8 -11 -12 -12 -13 -14 -14 -14 -13
-18 -18 -17 -17 -17 -17 -16 -15 -16 -16 -16 -16 -16 -16 -16 -16 -16 -15 -15 -15 -16 -15 -16 -16 -15 -15 -15 -13 -14 -15 -14 -15 -15 -14 -13 -13 -13 -10 -12 -13 -13 -14 -14 -14 -14
-19 -19 -19 -19 -17 -17 -17 -17 -16 -15 -16 -17 -17 -16 -16 -16 -16 -16 -16 -15 -16 -16 -16 -16 -16 -16 -16 -15 -15 -16 -16 -15 -14 -15 -15 -13 -15 -13 -12 -14 -13 -13 -14 -15 -13
-20 -20 -21 -21 -20 -18 -18 -17 -17 -16 -17 -17 -18 -17 -17 -17 -17 -16 -16 -16 -17 -17 -17 -17 -17 -17 -17 -16 -16 -17 -17 -15 -14 -15 -15 -15 -15 -14 -15 -14 -14 -15 -15 -15 -13
-21 -21 -21 -21 -21 -21 -20 -19 -18 -17 -17 -18 -18 -19 -19 -17 -17 -17 -18 -18 -18 -17 -18 -18 -18 -18 -17 -17 -18 -18 -15 -15 -16 -15 -15 -17 -16 -16 -14 -15 -16 -16 -16 -16 -15
Height
5888 5889 5889 5889 5889 5889 5890 5889 5889 5888 5888 5887 5886 5886 5885 5884 5883 5882 5881 5880 5878 5876 5875 5873 5872 5869 5867 5865 5864 5862 5861 5859 5857 5855 5854 5852 5851 5850 5848 5846 5844 5842 5841 5840 5839
5885 5885 5886 5886 5886 5886 5886 5886 5887 5886 5885 5884 5884 5883 5882 5882 5881 5880 5879 5877 5876 5874 5872 5871 5869 5867 5866 5864 5862 5861 5859 5858 5856 5854 5852 5851 5849 5848 5846 5844 5842 5840 5838 5836 5835
5880 5881 5881 5882 5882 5883 5882 5882 5882 5882 5882 5881 5880 5879 5878 5877 5878 5877 5876 5874 5873 5872 5870 5868 5867 5866 5864 5862 5860 5859 5857 5856 5854 5852 5851 5849 5846 5844 5842 5841 5839 5837 5835 5833 5831
5874 5875 5876 5877 5877 5878 5878 5877 5877 5877 5876 5876 5875 5874 5874 5874 5875 5872 5872 5871 5870 5869 5867 5865 5863 5862 5861 5859 5857 5856 5855 5853 5851 5850 5848 5846 5845 5842 5838 5838 5836 5834 5832 5830 5828
5869 5869 5870 5870 5871 5872 5872 5872 5872 5871 5871 5871 5870 5869 5869 5869 5869 5867 5867 5866 5866 5865 5863 5862 5860 5859 5858 5856 5854 5852 5851 5849 5848 5846 5844 5842 5841 5840 5835 5834 5832 5830 5828 5826 5824
5862 5863 5863 5864 5864 5864 5864 5864 5864 5864 5864 5864 5863 5863 5863 5865 5863 5862 5861 5860 5860 5859 5859 5857 5856 5854 5853 5852 5850 5848 5847 5844 5844 5841 5840 5837 5836 5835 5832 5829 5827 5825 5823 5820 5819
5856 5856 5856 5856 5857 5857 5856 5857 5857 5856 5856 5855 5854 5854 5855 5858 5856 5855 5855 5854 5854 5853 5852 5851 5849 5848 5847 5845 5844 5841 5842 5839 5839 5836 5834 5831 5832 5831 5828 5826 5823 5820 5818 5815 5813
5849 5849 5850 5849 5849 5849 5848 5848 5849 5848 5847 5846 5845 5845 5846 5849 5847 5846 5846 5847 5846 5845 5844 5843 5841 5840 5839 5838 5836 5834 5832 5831 5830 5829 5826 5823 5828 5821 5821 5821 5819 5814 5812 5810 5807
5840 5841 5841 5841 5841 5842 5841 5839 5839 5839 5838 5837 5837 5835 5837 5840 5840 5837 5837 5838 5837 5836 5835 5834 5833 5833 5833 5829 5826 5827 5823 5822 5821 5819 5816 5814 5817 5818 5813 5813 5814 5810 5805 5803 5801
5831 5832 5832 5832 5832 5833 5832 5830 5829 5830 5829 5828 5826 5828 5829 5831 5830 5830 5830 5829 5828 5827 5826 5826 5823 5824 5824 5820 5817 5817 5812 5812 5813 5807 5803 5804 5805 5811 5806 5802 5806 5805 5800 5795 5791
5821 5822 5822 5822 5823 5823 5823 5821 5821 5819 5820 5820 5818 5818 5817 5820 5821 5822 5821 5820 5819 5819 5819 5816 5813 5818 5815 5809 5808 5806 5804 5801 5807 5797 5790 5793 5787 5797 5801 5796 5797 5796 5793 5787 5783
5810 5811 5811 5811 5812 5813 5813 5812 5809 5808 5805 5809 5808 5806 5808 5809 5810 5813 5813 5812 5812 5811 5808 5805 5804 5811 5804 5802 5797 5796 5793 5794 5792 5788 5780 5781 5776 5781 5784 5788 5790 5786 5785 5780 5774
5798 5799 5800 5800 5800 5802 5803 5803 5800 5796 5791 5793 5798 5796 5797 5800 5801 5803 5805 5803 5802 5799 5800 5796 5798 5796 5796 5793 5789 5787 5783 5784 5779 5775 5770 5765 5762 5770 5772 5777 5780 5779 5775 5771 5766
5786 5786 5788 5787 5790 5790 5790 5790 5790 5788 5778 5772 5780 5782 5787 5789 5787 5794 5793 5793 5790 5790 5789 5782 5789 5786 5783 5782 5780 5774 5776 5772 5769 5762 5759 5753 5740 5756 5761 5762 5764 5767 5766 5759 5755
5774 5774 5773 5773 5773 5775 5777 5777 5778 5778 5768 5760 5757 5767 5775 5779 5781 5781 5781 5779 5779 5778 5778 5776 5773 5774 5772 5772 5770 5765 5765 5762 5758 5752 5744 5744 5737 5738 5741 5746 5750 5753 5751 5747 5744
5761 5761 5762 5761 5760 5759 5760 5762 5764 5765 5745 5749 5749 5755 5761 5764 5768 5768 5768 5768 5770 5766 5765 5765 5762 5762 5761 5761 5758 5755 5752 5750 5745 5740 5728 5736 5732 5721 5727 5731 5732 5739 5739 5732 5726
5745 5746 5750 5749 5749 5748 5746 5746 5748 5738 5740 5742 5744 5744 5747 5752 5752 5753 5756 5755 5755 5753 5752 5752 5750 5749 5750 5748 5747 5744 5741 5735 5729 5726 5719 5725 5714 5711 5714 5715 5715 5725 5727 5720 5718
5730 5730 5733 5735 5736 5735 5734 5732 5728 5727 5730 5734 5730 5733 5734 5736 5737 5737 5737 5739 5742 5740 5739 5735 5735 5738 5738 5736 5731 5730 5729 5725 5717 5717 5706 5710 5697 5703 5703 5705 5711 5713 5710 5707 5705
5713 5713 5717 5724 5719 5713 5710 5711 5715 5717 5717 5712 5714 5718 5719 5722 5721 5722 5720 5722 5723 5729 5725 5721 5719 5719 5719 5719 5718 5715 5711 5716 5709 5706 5695 5691 5691 5693 5691 5690 5699 5703 5700 5697 5695
5693 5694 5699 5705 5702 5697 5685 5694 5701 5704 5702 5697 5697 5699 5706 5707 5704 5703 5706 5706 5706 5710 5712 5706 5699 5705 5703 5703 5700 5702 5705 5698 5695 5690 5684 5678 5679 5675 5680 5683 5691 5692 5690 5688 5683
5671 5669 5686 5688 5684 5675 5666 5681 5685 5688 5683 5682 5682 5683 5685 5689 5685 5684 5688 5693 5687 5691 5692 5690 5684 5690 5686 5686 5690 5688 5687 5684 5682 5679 5675 5669 5663 5662 5665 5671 5674 5678 5679 5675 5670
5650 5649 5664 5670 5665 5654 5654 5665 5665 5668 5665 5666 5663 5665 5668 5672 5668 5668 5669 5673 5670 5674 5673 5670 5662 5662 5671 5670 5670 5667 5666 5667 5665 5668 5666 5660 5641 5663 5665 5666 5662 5662 5660 5659 5654
5628 5632 5636 5641 5639 5637 5643 5644 5643 5650 5650 5649 5647 5651 5654 5652 5647 5648 5653 5661 5660 5653 5651 5652 5637 5639 5653 5653 5646 5646 5655 5654 5650 5649 5641 5638 5636 5658 5655 5653 5647 5644 5643 5639 5637
5606 5605 5607 5608 5620 5622 5622 5626 5623 5637 5630 5629 5630 5632 5633 5633 5635 5626 5634 5640 5644 5636 5635 5626 5619 5619 5625 5640 5635 5626 5629 5631 5628 5623 5626 5618 5623 5640 5646 5643 5640 5633 5631 5625 5617
5585 5581 5583 5578 5591 5600 5603 5600 5605 5613 5615 5617 5607 5612 5620 5612 5613 5612 5618 5624 5621 5619 5612 5602 5598 5603 5606 5616 5618 5608 5611 5613 5612 5607 5598 5610 5604 5618 5625 5625 5619 5617 5616 5602 5603
5563 5565 5563 5562 5566 5567 5573 5574 5581 5594 5596 5591 5583 5598 5596 5588 5597 5602 5603 5599 5592 5592 5592 5588 5580 5584 5580 5593 5596 5586 5590 5598 5599 5594 5587 5588 5587 5607 5605 5600 5602 5599 5588 5583 5590
5540 5539 5538 5540 5544 5547 5548 5552 5554 5565 5570 5567 5572 5568 5566 5574 5587 5578 5572 5572 5567 5572 5573 5571 5570 5567 5559 5572 5566 5551 5579 5584 5584 5586 5580 5567 5577 5588 5584 5584 5581 5576 5569 5567 5563
Wind_Speed
19 17 17 17 17 20 20 18 17 17 16 16 15 14 13 12 11 10 11 10 10 11 11 12 12 13 13 14 14 12 12 11 10 12 13 14 14 15 16 17 17 16 15 16 16
25 24 24 23 22 21 21 23 22 21 20 20 20 19 18 17 16 15 13 13 12 13 12 12 13 14 15 15 14 14 14 13 12 11 11 14 16 15 16 16 16 16 16 15 16
30 30 29 29 28 27 27 25 25 25 26 25 25 24 23 22 21 21 20 19 18 17 17 17 16 16 17 18 18 16 16 16 15 16 16 16 17 18 20 19 19 17 15 16 16
34 34 34 34 33 33 32 32 32 32 31 31 31 30 29 28 26 27 26 26 24 23 23 23 22 22 21 21 22 21 21 21 20 20 21 20 19 19 21 19 19 20 21 19 19
35 35 35 35 36 36 37 36 37 37 37 36 36 35 34 33 31 31 31 31 31 30 30 29 29 28 28 27 27 26 25 26 26 25 25 24 22 21 26 22 21 22 24 24 23
34 35 36 37 38 38 38 39 40 40 40 40 40 39 38 36 37 35 34 35 35 35 35 34 34 35 34 34 34 34 31 32 30 30 29 30 27 24 25 27 26 25 27 27 27
34 36 37 38 39 39 40 42 43 43 43 43 44 44 42 39 40 39 38 38 37 37 38 37 38 39 38 38 39 40 38 39 35 36 35 35 31 26 28 29 29 29 28 28 30
35 36 37 39 39 40 43 44 43 45 46 46 47 48 47 43 43 43 41 39 39 39 40 40 40 40 39 40 42 42 43 43 42 39 40 41 34 37 31 30 30 33 32 31 33
38 39 39 40 40 40 43 46 46 46 47 47 47 48 48 44 44 44 43 43 42 41 42 42 41 41 41 43 43 42 46 45 43 44 44 46 42 38 39 35 30 33 36 35 35
42 41 42 44 43 42 42 45 48 49 48 48 48 47 45 42 42 42 42 42 43 42 42 42 43 42 42 42 44 42 47 47 45 48 50 48 47 38 42 45 35 33 36 40 40
47 46 45 45 45 44 44 45 47 51 50 50 51 49 48 44 42 40 40 42 42 42 41 42 45 40 38 44 44 44 47 48 42 47 54 50 54 47 42 45 39 37 37 41 42
50 50 49 49 49 48 47 48 48 49 54 52 54 54 51 49 47 43 43 45 45 44 44 46 47 36 42 42 46 47 48 45 46 50 55 53 56 51 48 41 37 38 35 39 43
50 51 52 52 53 52 52 51 51 52 55 56 55 57 56 54 51 48 45 47 48 49 48 49 46 45 43 42 44 45 47 45 48 51 54 57 57 50 47 41 34 34 35 36 39
49 50 52 52 53 54 54 55 55 54 59 63 57 60 57 54 56 49 48 47 49 50 49 55 48 48 48 45 45 47 44 46 48 54 56 59 61 49 46 43 39 37 34 38 42
49 51 51 52 50 53 56 55 56 57 64 67 67 59 52 52 50 47 43 44 45 47 48 51 50 46 47 45 46 50 48 50 52 56 61 60 61 58 57 50 49 43 42 37 29
56 53 54 55 52 52 53 56 56 58 73 71 70 64 59 56 52 50 49 48 46 49 49 48 53 50 51 49 49 50 52 53 57 60 66 61 63 68 62 55 54 47 30 36 41
61 62 60 60 60 57 56 56 58 68 71 72 69 67 63 58 56 53 51 50 49 52 54 53 54 52 51 52 54 55 54 59 64 65 67 64 71 70 66 65 62 43 41 40 33
61 64 63 62 63 66 64 63 66 68 68 68 71 68 66 64 60 58 58 55 52 52 54 58 59 55 55 54 57 58 58 61 65 66 72 70 73 71 70 64 52 52 26 31 26
67 65 65 59 60 68 70 73 70 69 69 70 70 70 68 65 66 63 63 63 58 53 54 55 59 60 60 62 63 65 64 59 65 69 73 71 68 66 66 68 57 32 33 22 35
73 60 71 67 64 65 73 73 73 74 74 76 74 74 72 68 70 69 67 67 66 59 54 60 62 59 60 60 63 64 62 64 64 65 68 69 71 72 70 64 40 35 31 43 47
77 74 71 67 65 64 65 74 70 71 72 76 78 78 76 74 74 76 73 67 71 69 63 62 62 65 66 65 62 63 63 65 66 68 69 71 74 71 67 61 45 48 40 51 50
83 84 78 70 66 68 69 61 65 69 69 66 72 74 74 76 77 77 75 71 72 72 71 68 71 72 68 64 64 65 64 63 64 64 65 67 73 61 57 60 54 57 57 50 52
89 88 85 81 79 80 70 62 66 65 69 74 70 64 76 73 70 74 67 68 70 70 70 68 75 76 66 66 69 69 66 68 68 69 73 73 72 60 60 63 62 60 56 55 59
89 91 90 90 86 86 88 86 69 59 64 74 76 76 74 78 78 76 79 79 73 70 61 66 71 66 64 65 61 65 65 61 61 69 71 76 72 63 59 60 61 60 55 57 58
83 87 90 90 93 89 90 94 96 94 91 79 80 79 77 84 79 72 69 68 74 60 60 67 76 74 71 71 71 72 70 73 75 74 75 73 72 70 65 66 66 64 55 59 60
84 82 83 82 86 91 91 93 94 93 94 91 88 84 82 83 75 71 70 67 65 67 64 64 66 65 67 62 65 71 71 69 71 73 76 76 78 72 61 64 58 53 58 61 58
83 84 84 83 83 85 88 90 92 90 93 90 85 82 82 87 84 77 76 75 78 76 77 76 69 70 72 67 65 74 72 70 68 68 69 72 64 54 60 52 45 51 55 56 61
Wind_Direction
258 257 259 261 261 262 264 264 265 269 274 280 284 285 289 296 299 305 309 308 311 311 313 317 319 324 330 333 333 329 330 328 322 313 307 303 302 300 296 296 296 305 301 295 291
256 258 258 259 261 265 265 260 264 267 272 275 277 278 277 278 281 281 284 285 290 291 291 295 300 305 307 312 320 324 320 316 315 312 312 311 310 308 302 302 305 299 298 294 290
261 260 259 261 263 264 266 263 259 261 264 266 267 268 270 272 272 272 273 276 275 282 283 285 285 289 293 299 303 306 309 311 309 308 308 306 309 316 306 306 305 309 306 300 296
262 264 265 265 265 264 264 266 267 263 262 263 264 266 266 267 267 269 271 273 275 279 279 279 281 284 287 288 294 299 301 301 302 302 306 309 309 316 309 313 309 313 312 308 305
263 265 267 268 268 269 268 268 269 271 270 269 268 267 268 269 268 268 270 272 273 275 277 281 285 287 289 290 291 294 296 298 300 302 304 304 309 314 308 311 309 309 307 305 302
262 265 267 268 268 268 268 267 269 270 271 272 272 272 271 272 272 272 270 270 272 274 275 278 280 283 285 287 288 290 292 293 295 295 296 299 300 309 304 310 311 310 310 307 304
262 265 267 268 269 269 270 269 269 269 270 271 272 272 272 273 274 274 274 273 274 275 276 277 278 279 280 281 284 286 288 288 290 292 291 291 293 300 299 302 306 307 309 306 302
263 267 269 269 269 269 271 271 271 271 270 270 270 271 272 273 274 275 275 276 276 277 277 277 277 279 282 282 281 283 282 282 284 286 288 287 289 293 293 296 300 303 302 301 301
266 270 272 271 271 272 271 271 271 271 272 271 271 271 270 271 273 275 276 277 277 277 277 279 280 281 283 284 282 284 281 284 287 284 284 284 285 287 290 291 295 296 299 299 294
264 266 269 272 272 273 274 274 271 270 270 270 271 272 273 272 271 273 275 275 275 277 279 281 280 282 284 284 281 278 281 284 284 285 281 282 283 282 287 289 293 291 297 296 294
266 267 267 268 271 272 272 275 276 273 270 270 270 269 272 272 271 272 274 276 277 277 280 278 279 287 285 278 278 275 276 279 283 281 282 285 283 283 280 283 289 291 292 291 292
265 265 266 267 268 269 272 274 274 275 270 268 268 270 269 272 272 272 274 275 276 277 275 280 279 284 280 281 278 279 279 280 280 279 281 282 282 285 284 283 286 289 290 290 290
264 266 267 267 268 270 272 272 273 275 276 270 266 267 269 270 271 273 275 274 274 273 275 275 279 277 278 278 278 278 279 282 281 279 280 282 281 283 283 288 286 284 290 289 286
261 265 266 267 270 270 270 272 273 274 274 275 270 264 268 271 270 274 274 273 271 272 271 271 273 275 276 275 277 277 278 279 278 279 283 281 289 285 291 293 291 294 295 289 288
258 259 260 262 263 267 270 270 272 274 274 275 274 274 272 271 273 274 273 270 269 268 267 272 272 269 270 274 274 277 277 275 276 278 280 280 287 295 292 294 299 300 306 296 288
256 257 259 261 261 261 264 267 268 270 269 272 275 277 281 281 277 275 274 271 271 269 268 268 269 269 272 272 271 273 274 276 275 276 279 286 287 289 293 297 302 309 311 305 300
256 260 262 265 264 263 261 262 264 266 273 274 276 280 279 280 282 280 276 273 269 268 268 268 268 268 269 270 271 273 273 272 274 277 286 288 285 288 294 300 299 311 310 300 290
264 264 263 265 269 268 266 264 259 267 269 272 274 277 279 279 279 278 277 272 270 270 269 268 269 268 268 268 269 268 267 269 277 281 283 280 281 289 291 293 300 309 309 294 286
268 268 265 265 267 267 262 262 265 266 265 267 270 269 270 273 277 277 276 274 272 272 273 271 264 264 263 264 265 267 267 272 274 276 280 283 286 289 292 296 307 312 303 283 304
266 260 265 265 270 270 265 267 270 268 267 269 269 268 270 271 272 271 273 274 273 273 269 268 268 267 266 265 264 266 271 272 274 274 278 281 286 288 290 292 296 308 301 306 303
266 264 264 265 269 257 257 266 269 269 270 269 270 267 268 269 271 272 272 273 274 273 270 268 266 267 266 265 269 267 266 266 267 271 278 282 281 285 291 299 297 298 304 302 297
265 265 266 264 257 252 255 253 258 264 263 265 267 270 271 269 271 268 268 271 277 274 273 270 271 267 268 266 268 267 265 267 269 275 277 275 271 281 289 288 294 302 302 297 288
265 266 265 261 255 252 256 251 252 252 259 264 263 264 269 268 264 262 264 271 277 270 269 270 267 267 268 265 266 271 272 270 271 270 267 270 276 281 283 289 296 299 297 286 284
267 267 265 263 260 257 254 256 256 251 258 262 259 259 258 264 259 262 265 274 274 264 268 265 265 264 262 262 265 269 271 272 271 270 273 271 277 277 278 284 289 289 285 284 282
265 266 268 268 264 261 259 260 258 254 259 261 265 266 266 264 263 265 265 263 262 261 259 262 261 261 263 262 263 263 265 266 268 272 274 279 280 283 283 289 284 289 289 280 279
265 265 264 263 266 267 265 264 261 258 264 270 272 267 266 267 267 268 265 264 267 262 265 262 268 266 267 264 260 265 265 268 268 275 280 281 277 282 286 283 289 284 279 279 282
262 261 260 259 260 261 263 267 269 266 262 267 268 269 265 266 269 265 262 268 271 269 273 270 272 272 272 274 269 262 268 275 275 275 279 276 283 287 285 290 290 285 286 284 282